Probability
0 0 0 0 0 0 0 0 0 0 0 0 0 0 0 0 0 0 0 0 0 0 1 2 3 3 3 4 5 5 4 3 3 3 3 2 2 1 0 0 0 0 0 0
0 0 0 0 0 0 0 0 0 0 0 0 0 0 0 0 0 0 0 0 0 0 1 2 3 3 3 3 4 3 2 2 3 3 2 1 1 0 0 0 0 0 0 0
0 0 0 0 0 0 0 0 0 0 0 0 0 0 0 0 0 0 0 0 0 0 1 2 3 3 3 3 3 2 1 1 2 2 1 0 0 0 0 0 0 0 0 0
0 0 0 0 0 0 0 0 0 0 0 0 0 0 0 0 0 0 0 0 0 0 0 1 2 3 3 3 3 2 1 0 1 1 0 0 0 0 0 0 0 0 0 0
0 0 0 0 0 0 0 0 0 0 0 0 0 0 0 0 0 0 0 0 0 0 0 0 1 2 2 2 2 2 1 0 0 0 0 0 0 0 0 0 0 0 0 0
0 0 0 0 0 0 0 0 0 0 0 0 0 0 0 0 0 0 0 0 0 0 0 0 0 1 1 1 1 1 0 0 0 0 0 0 0 0 0 0 0 0 0 0
0 0 0 0 0 0 0 0 0 0 0 0 0 0 0 0 0 0 0 0 0 0 0 0 0 0 0 0 0 0 0 0 0 0 0 0 0 0 0 0 0 0 0 0
0 0 0 0 0 0 0 0 0 0 0 0 0 0 0 0 0 0 0 0 0 0 0 0 0 0 0 0 0 0 0 0 0 0 0 0 0 0 0 0 0 0 0 0
0 0 0 0 0 0 0 0 0 0 0 0 0 0 0 0 0 0 0 0 0 0 0 0 0 0 0 0 0 0 0 0 0 0 0 0 0 0 0 0 0 0 0 0
0 0 0 0 0 0 0 0 0 0 0 0 0 0 0 0 0 0 0 0 0 0 0 0 0 0 0 0 0 0 0 0 0 0 0 0 0 0 0 0 0 0 0 0
0 0 0 0 0 0 0 0 0 0 0 0 0 0 0 0 0 0 0 0 0 0 0 0 0 0 0 0 0 0 0 0 0 0 0 0 0 0 0 0 0 0 0 0
0 0 0 0 0 0 0 0 0 0 0 0 0 0 0 0 0 0 0 0 0 0 0 0 0 0 0 0 0 0 0 0 0 0 0 0 0 0 0 0 0 0 0 0
0 0 0 0 0 0 0 0 0 0 0 0 0 0 0 0 0 0 0 0 0 0 0 0 0 0 0 0 0 0 0 0 0 0 0 0 0 0 0 0 0 0 0 0
0 0 0 0 0 0 0 0 0 0 0 0 0 0 0 0 0 0 0 0 0 0 0 0 0 0 0 0 0 0 0 0 0 0 0 0 0 0 0 0 0 0 0 0
0 0 0 0 0 0 0 0 0 0 0 0 0 0 0 0 0 0 0 0 0 0 0 0 0 0 0 0 0 0 0 0 0 0 0 0 0 0 0 0 0 0 0 0
0 0 0 0 0 0 0 0 0 0 0 0 0 0 0 0 0 0 0 0 0 0 0 0 0 0 0 0 0 0 0 0 0 0 0 0 0 0 0 0 0 0 0 0
0 0 0 0 0 0 0 0 0 0 0 0 0 0 0 0 0 0 0 0 0 0 0 0 0 0 0 0 0 0 0 0 0 0 0 0 0 0 0 0 0 0 0 0
0 0 0 0 0 0 0 0 0 0 0 0 0 0 0 0 0 0 0 0 0 0 0 0 0 0 0 0 0 0 0 0 0 0 0 0 0 0 0 0 0 0 0 0
0 0 0 0 0 0 0 0 0 0 0 0 0 0 0 0 0 0 0 0 0 0 0 0 0 0 0 0 0 0 0 0 0 0 0 0 0 0 0 0 0 0 0 0
0 0 0 0 0 0 0 0 0 0 0 0 0 0 0 0 0 0 0 0 0 0 0 0 0 0 0 0 0 0 0 0 0 0 0 0 0 0 0 0 0 0 0 0
0 0 0 0 0 0 0 0 0 0 0 0 0 0 0 0 0 0 0 0 0 0 0 0 0 0 0 0 0 0 0 0 0 0 0 0 0 0 0 0 0 0 0 0
0 0 0 0 0 0 0 0 0 0 0 0 0 0 0 0 0 0 0 0 0 0 0 0 0 0 0 0 0 0 0 0 0 0 0 0 0 0 0 0 0 0 0 0
0 0 0 0 0 0 0 0 0 0 0 0 0 0 0 0 0 0 0 0 0 0 0 0 0 0 0 0 0 0 0 0 0 0 0 0 0 0 0 0 0 0 0 0
0 0 0 0 0 0 0 0 0 0 0 0 0 0 0 0 0 0 0 0 0 0 0 0 0 0 0 0 0 0 0 0 0 0 0 0 0 0 0 0 0 0 0 0
0 0 0 0 0 0 0 0 0 0 0 0 0 0 0 0 0 0 0 0 0 0 0 0 0 0 0 0 0 0 0 0 0 0 0 0 0 0 0 0 0 0 0 0
0 0 0 0 0 0 0 0 0 0 0 0 0 0 0 0 0 0 0 0 0 0 0 0 0 0 0 0 0 0 0 0 0 0 0 0 0 0 0 0 0 0 0 0
0 0 0 0 0 0 0 0 0 0 0 0 0 0 0 0 0 0 0 0 0 0 0 0 0 0 0 0 0 0 0 0 0 0 0 0 0 0 0 0 0 0 0 0
Wind_Speed
10 11 10 11 13 11 13 12 10 10 12 13 12 10 9 8 7 6 4 3 1 2 3 5 6 7 8 9 9 10 12 12 12 12 12 12 12 12 11 11 11 11 10 10
9 10 11 15 15 14 14 14 13 13 15 11 9 7 7 6 6 6 5 4 3 2 3 4 6 7 8 9 9 10 11 11 10 11 11 12 12 12 12 11 11 11 11 11
6 6 7 11 11 13 11 10 9 12 12 8 9 9 7 6 6 6 6 5 4 4 5 5 6 7 9 8 8 10 10 10 11 12 12 12 12 12 13 12 11 11 10 10
4 3 8 8 4 7 11 11 8 8 8 7 8 8 5 4 5 7 6 6 5 4 4 4 4 5 6 8 9 10 10 10 11 12 12 12 13 13 12 11 11 10 10 10
3 4 9 8 4 3 5 6 3 5 7 7 8 6 5 6 7 7 6 6 6 5 4 3 5 6 7 8 8 10 11 11 12 12 13 13 13 13 11 11 10 9 10 11
4 5 7 6 5 5 2 4 3 3 4 7 6 4 6 9 9 8 8 6 5 3 1 3 4 6 8 9 9 10 10 11 11 12 13 13 13 12 10 10 10 10 9 9
7 7 9 7 6 2 1 5 4 3 3 3 3 4 8 10 8 6 7 6 5 2 1 3 5 7 9 9 9 8 8 9 10 11 12 12 11 11 12 11 11 10 10 7
6 8 10 4 0 2 5 4 3 4 4 5 6 7 8 9 8 7 7 6 5 3 1 1 4 7 8 9 8 8 9 9 10 11 10 11 13 12 12 13 12 11 10 8
8 9 5 3 5 5 4 4 4 5 6 6 7 8 8 8 7 6 6 5 4 3 1 1 3 5 8 7 8 9 9 10 10 11 10 11 13 13 12 11 10 9 9 8
6 8 7 6 5 5 5 6 7 6 7 6 8 8 8 7 7 6 5 5 4 3 2 2 2 3 5 7 9 10 10 10 10 11 11 11 10 10 11 11 11 10 9 9
9 8 7 7 6 6 7 7 8 8 7 7 8 9 8 7 7 6 5 5 3 3 3 3 3 3 4 7 10 10 10 9 9 10 11 10 8 7 9 8 11 13 11 11
10 8 6 8 7 7 9 9 9 9 9 8 8 9 8 8 7 6 6 5 4 4 4 3 3 4 5 7 10 11 10 9 9 9 9 9 9 7 7 8 12 12 13 12
13 11 10 12 11 10 11 11 10 9 10 11 9 8 8 8 7 6 6 6 5 5 5 4 4 5 5 7 9 11 11 10 9 9 10 10 10 11 10 9 12 14 16 16
10 9 11 11 11 11 10 10 10 10 10 10 9 8 8 8 8 8 8 7 6 5 5 5 5 6 6 7 8 9 9 10 10 9 10 10 10 10 10 11 11 7 11 17
9 9 11 11 11 10 9 8 9 9 9 9 8 8 8 9 9 9 8 6 5 5 5 5 6 6 5 7 8 9 9 8 9 9 9 9 9 10 9 10 10 10 8 11
8 8 9 9 10 10 9 8 9 10 9 9 9 8 8 9 9 9 7 6 6 7 7 6 7 6 6 7 9 8 7 12 12 10 10 10 10 10 10 11 11 11 10 10
7 8 8 9 9 9 8 8 8 10 9 9 10 9 8 7 7 7 6 6 6 7 7 7 7 6 7 8 9 7 8 11 15 11 10 11 11 11 11 11 11 10 9 11
6 7 7 8 9 9 10 10 9 10 10 10 9 8 8 7 8 7 6 4 3 4 5 6 6 7 7 8 8 8 8 9 10 10 10 10 10 10 10 10 11 11 9 11
5 7 7 8 9 9 10 10 10 10 10 9 8 9 8 8 7 7 5 4 5 6 5 5 8 8 8 9 10 8 9 10 10 9 9 14 12 10 10 10 11 11 11 10
7 7 9 9 9 10 10 10 10 10 9 8 8 8 8 8 6 6 5 6 6 5 5 6 7 7 8 9 11 9 10 11 12 11 10 11 11 11 10 11 11 11 10 9
8 9 9 10 10 10 10 10 10 11 10 8 8 9 9 8 6 5 5 5 4 4 6 8 6 6 7 9 12 9 10 11 11 12 12 11 11 11 11 11 11 10 10 9
8 9 10 10 11 11 10 9 9 10 10 9 8 8 7 7 6 5 6 5 4 6 5 5 5 8 11 12 9 9 10 11 11 10 11 11 12 12 11 11 11 10 10 9
9 9 10 11 11 11 11 9 9 9 10 10 9 8 8 7 5 5 5 3 4 6 5 4 8 14 16 10 9 10 11 11 11 10 10 11 11 11 11 12 10 10 10 10
9 10 11 10 9 10 11 10 9 8 9 9 8 7 6 5 4 4 3 5 7 6 4 7 13 15 14 8 9 9 10 10 10 10 10 10 10 10 10 11 10 10 10 11
10 10 10 10 9 8 9 9 8 8 8 6 6 5 4 4 4 3 3 5 8 7 5 9 14 14 9 8 9 9 9 9 10 11 10 11 11 10 10 10 10 10 10 9
9 8 8 9 8 8 8 7 6 6 5 5 4 3 2 2 3 3 3 5 7 7 6 6 8 10 7 8 9 9 9 11 12 10 10 10 11 11 10 10 12 10 9 9
9 8 7 7 7 6 6 6 6 5 4 4 3 2 1 1 2 3 4 4 5 5 5 5 6 7 8 8 9 9 9 9 9 10 10 10 10 10 10 12 10 9 9 9
Wind_Direction
256 264 264 263 264 255 238 233 239 257 270 283 298 306 311 316 322 323 323 319 263 205 187 179 178 177 177 175 174 173 173 176 179 177 172 169 169 170 170 170 171 169 169 170
269 264 263 268 260 247 246 242 247 264 272 283 297 311 318 322 322 319 318 311 291 252 205 189 185 180 173 173 173 170 172 174 168 164 165 167 167 165 164 164 163 162 166 167
271 281 287 261 241 232 231 228 232 252 265 303 317 315 308 312 317 315 309 301 282 248 219 209 193 181 176 171 164 166 169 166 164 163 165 165 161 161 163 162 157 159 161 162
268 294 248 252 265 239 242 244 239 257 279 294 299 299 288 310 319 312 308 301 291 264 233 214 190 172 160 156 160 162 163 163 163 162 161 160 160 162 160 156 157 156 156 156
238 255 272 283 276 255 243 259 290 281 296 310 312 314 308 330 325 306 295 290 288 271 229 191 174 162 154 156 158 162 167 167 166 162 159 159 161 160 153 149 148 148 150 150
226 245 252 270 299 294 238 266 320 323 330 341 353 327 305 324 321 318 320 321 310 299 222 175 173 160 158 162 165 172 173 169 163 160 159 160 158 152 145 144 142 140 140 147
226 242 263 275 302 4 169 268 296 296 303 325 332 282 294 307 309 313 316 319 327 308 223 195 173 165 167 168 177 172 159 156 155 156 155 152 145 143 141 137 135 135 133 135
207 229 251 277 325 194 239 272 276 278 277 285 290 296 302 307 309 318 327 326 328 323 293 199 170 170 173 178 168 151 149 152 153 151 148 146 142 141 141 140 138 136 132 129
208 227 248 241 228 245 245 259 271 271 271 270 280 290 299 306 307 307 311 313 313 302 284 223 177 176 179 173 153 150 151 153 152 148 146 147 147 145 145 146 144 146 145 144
252 258 266 274 273 274 274 272 275 275 275 270 275 284 291 298 299 298 298 302 307 297 254 233 200 187 180 164 155 154 155 154 153 151 148 148 147 150 153 155 152 151 152 150
253 266 285 274 267 274 285 285 287 289 279 269 274 282 283 287 285 283 285 288 286 272 245 226 199 185 171 162 157 156 156 155 155 152 149 148 146 152 156 163 164 160 161 158
250 252 252 270 277 282 287 287 287 288 288 283 271 272 277 279 276 274 272 272 273 270 249 223 196 187 175 169 161 159 157 158 157 152 148 145 138 118 108 126 139 143 148 150
250 264 265 269 273 272 273 278 279 279 278 282 277 268 269 273 271 269 265 258 256 252 242 218 200 191 183 174 167 167 166 163 157 155 153 151 148 145 134 117 122 135 144 148
253 262 268 268 270 273 271 273 278 278 276 273 274 272 270 273 272 266 259 253 248 241 232 214 200 198 186 174 167 167 163 160 158 157 155 153 151 148 146 145 141 133 142 146
256 250 256 269 273 276 278 279 280 279 280 279 277 273 269 272 271 267 261 252 242 229 219 206 200 201 182 170 165 164 161 158 154 150 148 147 144 141 140 140 138 136 131 140
268 267 267 272 277 282 283 281 279 280 280 279 280 277 269 267 270 270 260 239 221 219 211 201 202 195 177 168 162 161 159 157 154 150 148 147 146 145 145 145 144 146 149 148
277 279 283 290 291 289 285 281 281 283 285 282 281 282 279 277 276 270 260 243 227 223 212 199 196 183 174 171 164 159 155 155 153 150 153 153 151 151 150 150 151 149 149 155
266 271 277 283 287 289 290 289 285 283 281 281 284 283 278 272 269 268 261 247 229 229 222 200 184 175 175 171 163 157 156 157 156 156 152 151 150 149 149 149 148 145 143 150
297 292 287 284 283 283 284 286 286 283 281 280 276 273 271 269 268 267 258 232 215 223 224 189 180 177 172 169 160 154 154 152 150 149 147 150 147 147 148 148 148 147 148 148
300 296 294 291 286 280 281 284 284 283 280 277 274 272 270 267 263 261 250 240 230 219 192 180 173 170 167 164 157 154 155 155 153 150 148 150 150 149 149 148 147 148 149 150
301 301 298 295 292 288 284 285 284 283 282 274 268 266 267 266 259 248 241 249 245 198 182 179 174 169 164 162 157 155 156 154 154 153 153 152 150 149 149 149 149 150 150 149
297 296 295 293 292 291 287 283 280 280 280 274 267 262 259 259 253 247 241 235 216 188 181 176 170 170 167 162 158 154 153 152 152 151 153 152 151 152 152 151 150 149 149 148
291 290 291 290 290 290 290 286 281 278 274 271 266 258 252 249 238 230 240 222 189 185 179 176 173 168 165 158 153 151 152 152 152 152 151 150 150 151 150 149 148 148 148 148
294 293 293 292 290 288 286 286 281 276 272 270 264 256 248 246 248 238 219 196 189 180 174 171 170 167 160 151 148 149 150 149 147 146 145 143 144 144 145 146 145 145 146 147
294 294 295 296 292 286 284 285 285 281 275 271 265 257 246 234 229 216 188 180 174 165 159 167 165 160 153 145 147 147 146 147 146 145 145 145 145 144 144 144 145 146 148 148
292 291 289 285 282 283 283 283 281 279 277 277 276 266 250 223 192 184 170 163 159 156 154 154 155 150 144 143 143 142 141 145 145 142 143 142 142 142 142 143 143 145 146 145
290 289 288 288 285 282 282 281 277 276 271 264 268 263 230 179 156 155 150 146 145 142 140 138 136 138 138 138 138 137 136 136 135 136 138 139 140 140 141 142 142 142 142 144